#timestamp,LO_Frequency,Hit,StdDev 
1699272015.2,285976382.0,N
1699272035.1,285976381.9,N
1699272036.0,285976381.9,N
1699272055.8,285976384.4,N
1699272075.6,285976381.7,N
1699272095.5,285976382.3,N
1699272115.3,285976381.9,N
1699272135.1,285976381.7,N
1699272155.9,285976382.5,N
1699272175.7,285976382.8,N
1699272195.6,285976381.1,N
1699272215.4,285976380.6,N
1699272235.2,285976380.0,N
1699272255.1,285976380.0,N
1699272256.0,285976380.0,Y
1699272275.8,286046999.0,P
1699272295.7,286046998.7,N
1699272315.5,286046998.1,N
1699272335.3,286047000.9,N
1699272355.2,286047002.8,N
1699272375.9,286047000.9,N
1699272395.7,286047001.2,N
1699272415.6,286047000.5,N
1699272435.4,286047000.8,N
1699272455.2,286046998.6,N
1699272475.1,286046998.8,N
1699272476.0,286046998.8,N
1699272495.8,286046998.9,N
1699272515.7,286046998.9,N
1699272535.5,286046999.0,N
1699272555.3,286046998.7,N
1699272575.2,286046996.7,N
1699272595.0,286046996.5,N
1699272595.9,286046996.5,N
1699272615.8,286046999.2,N
1699272635.6,286047011.9,N
1699272655.4,286046999.3,N
1699272675.3,286046998.3,N
1699272695.1,286047001.1,N
1699272715.8,286046998.9,N
1699272735.7,286047000.7,N
1699272755.5,286047001.1,N
1699272775.4,286047001.2,N
1699272795.2,286046998.1,N
1699272815.0,286047011.9,N
1699272815.9,286046998.1,N
1699272835.8,286047000.7,N
1699272855.6,286046999.7,N
1699272875.4,286047001.2,N
1699272895.3,286047000.8,N
1699272915.1,286047001.1,N
1699272935.9,286047000.6,N
1699272955.7,286047000.6,N
1699272975.5,286046999.7,N
1699272995.4,286047002.5,N
1699273015.2,286047001.4,N
1699273035.0,286047001.3,N
1699273035.9,286047001.3,N
1699273055.8,286047001.8,N
1699273075.6,286047001.5,N
1699273095.5,286047004.0,N
1699273115.3,286047001.8,N
1699273135.1,286047004.3,N
1699273155.9,286047001.7,N
1699273175.7,286047001.9,N
1699273195.5,286047001.7,N
1699273215.4,286047001.6,N
1699273235.2,286047001.5,N
1699273255.1,286047001.6,N
1699273256.0,286047001.6,N
1699273275.8,286047003.2,N
1699273295.6,286047002.9,N
1699273315.5,286047005.8,N
1699273335.3,286047004.6,N
1699273355.2,286047006.9,N
1699273375.9,286047006.3,Y
1699273395.7,286047005.7,P
1699273415.6,286047005.5,N
1699273435.4,286047003.4,N
1699273455.2,286047003.7,N
1699273475.1,286047004.2,N
1699273476.0,286047004.2,Y
1699273495.8,286046998.5,P
1699273515.7,286046998.1,N
1699273535.5,286047001.2,N
1699273555.3,286047000.3,N
1699273575.2,286047001.0,N
1699273595.0,286047001.0,N
1699273595.9,286047001.0,N
1699273615.7,286046999.7,N
1699273635.6,286047000.1,N
1699273655.4,286047000.4,N
1699273675.3,286046999.7,N
1699273695.1,286047002.3,N
1699273715.8,286047002.2,N
1699273735.7,286047002.1,N
1699273755.5,286047001.8,N
1699273775.3,286047003.8,N
1699273795.2,286047001.3,N
1699273815.0,286047001.4,N
1699273815.9,286047001.4,N
1699273835.8,286047001.3,N
1699273855.6,286047004.4,Y
1699273875.4,286047002.1,P
1699273895.3,286047002.0,P
1699273915.1,286047001.6,P
1699273935.9,286047001.4,Y
1699273955.7,286047002.3,P
1699273975.5,286047002.3,P
1699273995.4,286047002.4,P
1699274015.2,286047002.8,Y
1699274035.0,286047000.7,P
1699274036.0,286047000.7,N
1699274055.8,286046998.5,N
1699274075.6,286047001.2,N
1699274095.5,286047000.8,N
1699274115.3,286047000.1,N
1699274135.1,286047001.0,N
1699274155.9,286047000.9,N
1699274175.7,286047001.0,N
1699274195.5,286046998.9,N
1699274215.4,286047001.2,N
1699274235.2,286047002.8,N
1699274255.1,286047000.1,N
1699274256.0,286047000.1,N
1699274275.8,286046999.8,N
1699274295.6,286047002.7,N
1699274315.5,286046999.9,N
1699274335.3,286047000.5,N
1699274355.1,286046998.1,N
1699274375.9,286046999.1,N
1699274395.7,286046997.1,N
1699274415.6,286046997.0,N
1699274435.4,286046997.6,N
1699274455.2,286046997.2,N
1699274475.1,286046996.7,N
1699274476.0,286046996.7,N
1699274495.8,286046999.0,N
1699274515.6,286046996.8,N
1699274535.5,286046999.1,N
1699274555.3,286046998.8,N
1699274575.2,286046998.2,N
1699274595.9,286046998.8,N
1699274615.7,286046999.4,N
1699274635.6,286046999.2,N
1699274655.4,286046998.3,N
1699274675.2,286046999.9,N
1699274695.1,286046998.5,N
1699274696.0,286046998.5,N
1699274715.8,286047001.0,N
1699274735.7,286046998.7,N
1699274755.5,286046997.0,N
1699274775.3,286046998.3,N
1699274795.2,286046998.5,N
1699274815.0,286046998.2,N
1699274815.9,286046998.2,N
1699274835.8,286046999.0,N
1699274855.6,286046999.1,N
1699274875.4,286046998.5,N
1699274895.3,286047000.6,N
1699274915.1,286047001.0,N
1699274916.0,286047001.0,N
1699274935.8,286047000.0,N
1699274955.7,286047000.7,N
1699274975.5,286047000.4,N
1699274995.4,286047000.3,N
1699275015.2,286047000.0,N
1699275035.0,286047000.1,N
1699275035.9,286047000.1,N
1699275055.8,286047001.1,N
1699275075.6,286047000.7,N
1699275095.4,286047000.9,N
1699275115.3,286047000.8,N
1699275135.1,286047000.9,N
1699275155.9,286047002.0,N
1699275175.7,286047000.1,N
1699275195.5,286047002.4,N
1699275215.4,286047002.6,N
1699275235.2,286047001.6,N
1699275255.0,286047004.3,Y
1699275255.9,286047004.3,P
1699275275.8,286047004.3,N
1699275295.6,286047001.7,N
1699275315.5,286047003.7,N
1699275335.3,286047002.4,N
1699275355.1,286047002.2,N
1699275375.9,286047001.7,N
1699275395.7,286047001.4,N
1699275415.6,286047004.2,Y
1699275435.4,286047000.1,P
1699275455.2,286047000.7,N
1699275475.1,286042802.3,P
1699275476.0,286047000.8,N
1699275495.8,286047000.3,N
1699275515.6,286047000.8,N
1699275535.5,286046998.7,N
1699275555.3,286046998.5,N
1699275575.2,286047001.0,N
1699275595.9,286046998.2,N
